[ hide orbit diagram ]
For accurate long-term ephemerides, please instead use our Horizons system.This orbit viewer was implemented using two-body methods, and hence should not be used for determining accurate long-term trajectories (over several years or decades) or planetary encounter circumstances.
Orbital Elements at Epoch 2459000.5 (2020-May-31.0) TDB
Reference: JPL 34 (heliocentric ecliptic J2000)
Element | Value | Uncertainty (1-sigma) | Units |
e | .3574288609907323 | 3.5797e-08 | |
a | 3.142834641466138 | 9.1697e-09 | au |
q | 2.01949483528468 | 1.1255e-07 | au |
i | 10.91871495974287 | 4.2255e-06 | deg |
node | 294.5872536189774 | 2.0739e-05 | deg |
peri | 86.20197548742956 | 2.1385e-05 | deg |
M | 100.0814243402998 | 4.9839e-06 | deg |
tp | 2458434.740701105301 (2018-Nov-12.24070111) | 2.738e-05 | TDB |
period | 2035.076428464443 5.57 | 8.9065e-06 2.438e-08 | d yr |
n | .17689753316618 | 7.7419e-10 | deg/d |
Q | 4.266174447647596 | 1.2447e-08 | au |
|
| | Orbit Determination Parameters
Additional Information
|
[ show covariance matrix ]
Physical Parameter Table
Parameter |
Symbol |
Value |
Units |
Sigma |
Reference |
Notes |
absolute magnitude |
H |
11.3 |
|
n/a |
MPO250203 |
|
diameter |
diameter |
35.310 |
km |
0.345 |
urn:nasa:pds:neowise_diameters_albedos::2.0[mainbelt] (http://adsabs.harvard.edu/abs/2011ApJ...741...68M) |
|
rotation period |
rot_per |
19.497 |
h |
n/a |
LCDB (Rev. 2020-October); Warner et al., 2009 |
Result based on less than full coverage, so that the period may be wrong by 30 percent or so. Published Reference List: [Carreno, A.; Arce, E.; Fornas, G.; Mas, V. (2019) Minor Planet Bull. 46, 200-203.] [Polakis, T. (2019) Minor Planet Bull. 46, 78-80.] |
geometric albedo |
albedo |
0.046 |
|
0.006 |
urn:nasa:pds:neowise_diameters_albedos::2.0[mainbelt] (http://adsabs.harvard.edu/abs/2011ApJ...741...68M) |
|
|
1006 Lagrangea (A923 RU) Discovered 1923-Sep-12 by Belyavskij, S. at Simeis |
Reference: DISCOVERY.DB | Last Updated: 2003-08-29 |
|
[ show close-approach data ]
|